Flag for Norway Weather past 2 weeks in Bodø, Norway

Now
34 °F

Light rain. Broken clouds.


Feels Like: 25 °F
Forecast: 35 / 39 °F
Wind: 13 mph from East

Location: Bodo Vi

Current Time: Apr 27, 2015 at 9:25:28 AM

Latest Report: Apr 27, 2015 at 8:50 AM


Visibility: N/A

Pressure: 29.62 "Hg

Humidity: 100%

Dew point: 34 °F

Location of BodøLocation

Historic Weather in Bodø — Graph

°F

Bodø temperature yesterday

Maximum temperature yesterday: 41 °F (at 10:20 AM)
Minimum temperature yesterday: 37 °F (at 3:50 AM)
Average temperature yesterday: 40 °F

Past Weeks' High & Low Weather Summary

 TemperatureHumidityPressure
High46 °F (Apr 16, 3:20 PM)100% (Apr 12, 10:50 AM)30.30 "Hg (Apr 12, 10:50 AM)
Low34 °F (Apr 14, 1:50 AM)49% (Apr 25, 12:50 PM)29.18 "Hg (Apr 23, 7:50 AM)
Average40 °F82%29.75 "Hg
* Reported Apr 12 7:20 AM — Apr 27 7:50 AM, Bodø, Weather by CustomWeather, © 2015

Note: Actual official high and low records may vary slightly from our data, if they occured in-between our weather recording intervals... More about our weather records

Advertising

Bodø weather history for previous 24 hours

 ConditionsComfort  
Time TempWeatherWind HumidityBarometerVisibility
7:50 AM
Mon, Apr 27
36 °FLight rain. Broken clouds.12 mph93%29.62 "Hg6 mi
7:20 AM36 °FLight rain. Fog.10 mph93%29.62 "Hg3 mi
6:50 AM36 °FDrizzle. Broken clouds.10 mph93%29.62 "HgN/A
6:20 AM37 °FDrizzle. Broken clouds.6 mph87%29.59 "HgN/A
5:50 AM37 °FLight rain. Broken clouds.6 mph81%29.59 "HgN/A
5:20 AM37 °FLight rain. Passing clouds.6 mph81%29.59 "HgN/A
4:50 AM37 °FLight rain. Passing clouds.7 mph81%29.59 "HgN/A
3:50 AM39 °FPartly cloudy.14 mph70%29.59 "HgN/A
2:50 AM39 °FPassing clouds.17 mph70%29.59 "HgN/A
1:50 AM39 °FPartly cloudy.18 mph70%29.59 "HgN/A
12:50 AM39 °FPassing clouds.20 mph70%29.56 "HgN/A
11:50 PM
Sun, Apr 26
39 °FPassing clouds.20 mph70%29.59 "HgN/A
11:20 PM39 °FPartly cloudy.20 mph70%29.59 "HgN/A
10:50 PM39 °FPartly cloudy.21 mph70%29.59 "HgN/A
10:20 PM39 °FBroken clouds.23 mph70%29.56 "HgN/A
9:50 PM39 °FBroken clouds.23 mph70%29.56 "HgN/A
9:20 PM41 °FPartly sunny.22 mph66%29.56 "HgN/A
8:50 PM39 °FPartly sunny.21 mph70%29.56 "HgN/A
8:20 PM41 °FBroken clouds.23 mph61%29.56 "HgN/A
7:50 PM41 °FBroken clouds.20 mph66%29.53 "HgN/A
7:20 PM39 °FBroken clouds.26 mph70%29.53 "HgN/A
6:50 PM39 °FPartly sunny.30 mph75%29.53 "HgN/A
6:20 PM39 °FBroken clouds.30 mph75%29.56 "HgN/A
5:50 PM37 °FBroken clouds.24 mph87%29.56 "HgN/A
5:20 PM39 °FLight rain. Broken clouds.23 mph75%29.56 "HgN/A
4:50 PM39 °FLight rain. Broken clouds.22 mph70%29.56 "HgN/A
4:20 PM41 °FScattered showers. Broken clouds.15 mph61%29.56 "HgN/A
3:50 PM41 °FScattered showers. Broken clouds.21 mph57%29.56 "HgN/A
3:20 PM41 °FScattered showers. Broken clouds.20 mph53%29.56 "HgN/A
2:50 PM41 °FPartly sunny.26 mph53%29.56 "HgN/A
2:20 PM41 °FPartly sunny.29 mph53%29.53 "HgN/A
1:50 PM41 °FPartly sunny.30 mph53%29.56 "HgN/A
1:20 PM41 °FPartly sunny.31 mph53%29.53 "HgN/A
12:50 PM41 °FPartly sunny.25 mph53%29.53 "HgN/A
12:20 PM39 °FPartly sunny.24 mph56%29.50 "HgN/A
11:50 AM41 °FPartly sunny.37 mph53%29.50 "HgN/A
11:20 AM41 °FPartly sunny.40 mph53%29.47 "HgN/A
10:50 AM39 °FPartly sunny.39 mph56%29.47 "HgN/A
10:20 AM41 °FPartly sunny.30 mph53%29.50 "HgN/A
9:50 AM39 °FPartly sunny.28 mph56%29.47 "HgN/A
9:20 AM39 °FPartly sunny.28 mph56%29.50 "HgN/A
Weather by CustomWeather, © 2015

See weather overviewHow to use our weather pages